Location: Altleiningen
(49.5078°N, 8.0741°E)
Time: 11:39:56
(UTC+00:00)

Okean 1-7 - Pass Details

Date: 03 March 2021
Orbit: 589 x 619 km, 82.5° (Epoch: 13 April)

Event Time Altitude Azimuth Distance (km) Brightness Sun altitude
Rises 17:56:44 0° 358° (N) 2,901 6.5 -7.7°
Reaches altitude 10° 17:59:15 10° 11° (N) 1,986 5.6 -8.2°
Maximum altitude 18:03:02 28° 70° (ENE) 1,172 4.0 -8.8°
Drops below altitude 10° 18:06:46 10° 129° (SE) 1,958 5.2 -9.4°
Enters shadow 18:08:54 - 141° (SE) 2,729 6.0 -9.7°
